TimeEDT,TemperatureF,Dew PointF,Humidity,Sea Level PressureIn,VisibilityMPH,Wind Direction,Wind SpeedMPH,Gust SpeedMPH,PrecipitationIn,Events,Conditions,WindDirDegrees,DateUTC
12:15 AM,59.0,55.4,88,30.09,10.0,NNE,5.8,-,N/A,,Mostly Cloudy,20,2012-10-26 04:15:00
12:35 AM,59.0,55.4,88,30.09,10.0,NNE,3.5,-,N/A,,Overcast,30,2012-10-26 04:35:00
12:55 AM,59.0,55.4,88,30.08,10.0,NNE,5.8,-,N/A,,Mostly Cloudy,30,2012-10-26 04:55:00
1:15 AM,59.0,55.4,88,30.08,10.0,NNE,3.5,-,N/A,,Scattered Clouds,20,2012-10-26 05:15:00
1:35 AM,59.0,55.4,88,30.08,10.0,NE,3.5,-,N/A,,Mostly Cloudy,40,2012-10-26 05:35:00
2:15 AM,57.2,53.6,88,30.07,10.0,NE,3.5,-,N/A,,Scattered Clouds,40,2012-10-26 06:15:00
2:35 AM,57.2,53.6,88,30.07,10.0,Calm,Calm,-,N/A,,Mostly Cloudy,0,2012-10-26 06:35:00
2:55 AM,57.2,53.6,88,30.08,10.0,NNE,3.5,-,N/A,,Scattered Clouds,20,2012-10-26 06:55:00
3:35 AM,55.4,53.6,94,30.08,7.0,Calm,Calm,-,N/A,,Scattered Clouds,0,2012-10-26 07:35:00
3:55 AM,55.4,53.6,94,30.08,10.0,Calm,Calm,-,N/A,,Mostly Cloudy,0,2012-10-26 07:55:00
4:15 AM,55.4,53.6,94,30.08,10.0,Calm,Calm,-,N/A,,Overcast,0,2012-10-26 08:15:00
4:35 AM,55.4,53.6,94,30.08,10.0,NNE,4.6,-,N/A,,Mostly Cloudy,20,2012-10-26 08:35:00
4:55 AM,55.4,53.6,94,30.09,10.0,NNE,4.6,-,N/A,,Mostly Cloudy,20,2012-10-26 08:55:00
5:15 AM,55.4,53.6,94,30.09,10.0,Calm,Calm,-,N/A,,Mostly Cloudy,0,2012-10-26 09:15:00
5:35 AM,55.4,53.6,94,30.09,10.0,NNE,4.6,-,N/A,,Mostly Cloudy,30,2012-10-26 09:35:00
5:55 AM,55.4,53.6,94,30.09,10.0,NE,5.8,-,N/A,,Scattered Clouds,40,2012-10-26 09:55:00
6:15 AM,55.4,53.6,94,30.10,10.0,NNE,4.6,-,N/A,,Clear,30,2012-10-26 10:15:00
6:35 AM,55.4,53.6,94,30.09,10.0,NE,4.6,-,N/A,,Clear,40,2012-10-26 10:35:00
6:55 AM,55.4,53.6,94,30.09,10.0,NE,5.8,-,N/A,,Clear,40,2012-10-26 10:55:00
7:15 AM,55.4,53.6,94,30.08,10.0,NNE,6.9,-,N/A,,Clear,30,2012-10-26 11:15:00
7:35 AM,55.4,53.6,94,30.09,10.0,Calm,Calm,-,N/A,,Clear,0,2012-10-26 11:35:00
8:15 AM,55.4,53.6,94,30.09,7.0,NNE,4.6,-,N/A,,Clear,30,2012-10-26 12:15:00
8:55 AM,57.2,55.4,94,30.11,10.0,NE,5.8,-,N/A,,Clear,40,2012-10-26 12:55:00
9:55 AM,62.6,57.2,82,30.12,10.0,NNE,4.6,-,N/A,,Clear,30,2012-10-26 13:55:00
10:15 AM,64.4,59.0,83,30.12,10.0,NNE,8.1,-,N/A,,Clear,20,2012-10-26 14:15:00
10:35 AM,66.2,59.0,78,30.12,10.0,North,8.1,-,N/A,,Clear,10,2012-10-26 14:35:00
10:55 AM,69.8,59.0,68,30.11,10.0,North,8.1,-,N/A,,Clear,10,2012-10-26 14:55:00
11:15 AM,69.8,59.0,68,30.11,10.0,NNE,9.2,-,N/A,,Clear,30,2012-10-26 15:15:00
11:35 AM,71.6,59.0,64,30.10,10.0,ENE,8.1,-,N/A,,Clear,60,2012-10-26 15:35:00
11:55 AM,71.6,57.2,60,30.09,10.0,NNE,11.5,-,N/A,,Clear,30,2012-10-26 15:55:00
12:15 PM,71.6,57.2,60,30.08,10.0,NE,6.9,-,N/A,,Clear,40,2012-10-26 16:15:00
12:35 PM,73.4,57.2,57,30.07,10.0,NNE,11.5,16.1,N/A,,Scattered Clouds,30,2012-10-26 16:35:00
12:55 PM,73.4,57.2,57,30.06,10.0,ENE,8.1,-,N/A,,Scattered Clouds,60,2012-10-26 16:55:00
1:15 PM,75.2,55.4,50,30.05,10.0,East,9.2,-,N/A,,Scattered Clouds,80,2012-10-26 17:15:00
1:35 PM,73.4,55.4,53,30.04,10.0,NE,8.1,18.4,N/A,,Scattered Clouds,40,2012-10-26 17:35:00
1:55 PM,75.2,55.4,50,30.04,10.0,NE,8.1,-,N/A,,Scattered Clouds,40,2012-10-26 17:55:00
2:15 PM,75.2,53.6,47,30.03,10.0,ENE,8.1,-,N/A,,Clear,60,2012-10-26 18:15:00
2:35 PM,77.0,53.6,44,30.01,10.0,NE,11.5,-,N/A,,Scattered Clouds,40,2012-10-26 18:35:00
2:55 PM,75.2,53.6,47,30.00,10.0,NE,6.9,-,N/A,,Scattered Clouds,50,2012-10-26 18:55:00
3:15 PM,77.0,53.6,44,29.99,10.0,ENE,5.8,-,N/A,,Scattered Clouds,70,2012-10-26 19:15:00
3:35 PM,77.0,53.6,44,29.98,10.0,NE,8.1,-,N/A,,Scattered Clouds,50,2012-10-26 19:35:00
3:55 PM,75.2,53.6,47,29.98,10.0,NE,6.9,-,N/A,,Clear,50,2012-10-26 19:55:00
4:15 PM,75.2,53.6,47,29.98,10.0,ENE,9.2,-,N/A,,Clear,60,2012-10-26 20:15:00
4:35 PM,75.2,53.6,47,29.97,10.0,East,10.4,-,N/A,,Clear,80,2012-10-26 20:35:00
4:55 PM,73.4,53.6,50,29.97,10.0,ENE,9.2,-,N/A,,Clear,60,2012-10-26 20:55:00
5:15 PM,73.4,53.6,50,29.97,10.0,ENE,9.2,-,N/A,,Clear,60,2012-10-26 21:15:00
5:35 PM,71.6,53.6,53,29.97,10.0,NE,8.1,-,N/A,,Clear,50,2012-10-26 21:35:00
5:55 PM,71.6,51.8,50,29.97,10.0,ENE,6.9,-,N/A,,Clear,60,2012-10-26 21:55:00
6:15 PM,69.8,51.8,53,29.97,10.0,NE,6.9,-,N/A,,Clear,50,2012-10-26 22:15:00
6:35 PM,68.0,51.8,56,29.97,10.0,ENE,3.5,-,N/A,,Clear,60,2012-10-26 22:35:00
6:55 PM,68.0,51.8,56,29.98,10.0,NNE,4.6,-,N/A,,Clear,30,2012-10-26 22:55:00
7:15 PM,66.2,51.8,60,29.98,10.0,NE,5.8,-,N/A,,Clear,40,2012-10-26 23:15:00
7:35 PM,64.4,51.8,64,29.99,10.0,NE,8.1,-,N/A,,Clear,50,2012-10-26 23:35:00
7:55 PM,64.4,51.8,64,29.99,10.0,ENE,6.9,-,N/A,,Clear,70,2012-10-26 23:55:00
8:15 PM,64.4,53.6,68,29.99,10.0,NE,6.9,-,N/A,,Clear,50,2012-10-27 00:15:00
8:35 PM,62.6,53.6,72,29.99,10.0,NNE,5.8,-,N/A,,Clear,30,2012-10-27 00:35:00
8:55 PM,62.6,55.4,77,29.99,10.0,NNE,8.1,-,N/A,,Clear,20,2012-10-27 00:55:00
9:15 PM,62.6,55.4,77,29.99,10.0,NNE,8.1,-,N/A,,Clear,20,2012-10-27 01:15:00
9:35 PM,60.8,55.4,82,30.00,10.0,NNE,5.8,-,N/A,,Clear,30,2012-10-27 01:35:00
9:55 PM,60.8,55.4,82,30.00,10.0,NNE,5.8,-,N/A,,Clear,30,2012-10-27 01:55:00
10:15 PM,60.8,55.4,82,29.99,10.0,NNE,6.9,-,N/A,,Clear,20,2012-10-27 02:15:00
10:35 PM,59.0,53.6,82,30.00,10.0,NNE,8.1,-,N/A,,Clear,20,2012-10-27 02:35:00
10:55 PM,59.0,55.4,88,29.99,7.0,NNE,6.9,-,N/A,,Clear,20,2012-10-27 02:55:00
11:15 PM,59.0,53.6,82,29.99,7.0,NNE,5.8,-,N/A,,Clear,20,2012-10-27 03:15:00
11:35 PM,59.0,53.6,82,29.98,7.0,NNE,6.9,-,N/A,,Clear,30,2012-10-27 03:35:00
11:55 PM,59.0,55.4,88,29.97,7.0,NNE,8.1,-,N/A,,Clear,20,2012-10-27 03:55:00